Weather in Khorramshahr

Iran     30°27′37″N   48°10′32″E
temp.,
°C
wind,
m/s
gust,
m/s
humid.,
%
clouds,
%
prec.,
mm/h
press.,
hPa
HPBL,
m
9 may, sun
sun901:30+31w33180 0.0 100741
04:30+29w34220 0.0 100659
07:30+29nw23260 0.0 100864
10:30+35wnw33160 0.0 10081080
13:30+37wnw45130 0.0 10073121
16:30+39w66110 0.0 10043578
19:30+38w67100 0.0 10041172
22:30+34wnw57130 0.0 1005150
10 may, mon
mon1001:30+32nw56140 0.0 100596
04:30+30nw33140 0.0 100539
07:30+30nnw23140 0.0 100639
10:30+36wnw23110 0.0 1007601
13:30+40nw3480 0.0 10052644
16:30+42nnw5570 0.0 10033625
19:30+40nw5680 0.0 1003718
22:30+37nw46100 0.0 100487
11 may, tue
tue1101:30+34nw33110 0.0 100332
04:30+33w22122 0.0 100313
07:30+33ne111279 0.0 100514
10:30+38nnw11910 0.0 1006533
13:30+42sw327100 0.0 10053394
16:30+43sw546100 0.0 10034823
19:30+41wsw6775 0.0 1003657
22:30+37w8131020 0.0 1004339
12 may, wed
wed1201:30+35nnw51011100 0.0 1004201
04:30+33w221496 0.0 100424
07:30+33wnw111465 0.0 100621
10:30+39wnw22973 0.0 1006596
13:30+42w35819 0.0 10053398
16:30+43w5780 0.0 10034498
19:30+42nw68986 0.0 10021797
22:30+38nnw46110 0.0 1003111
13 may, thu
thu1301:30+35w46130 0.0 100372
04:30+34nnw331366 0.0 100326
07:30+34nnw33110 0.0 100428
10:30+41nnw2483 0.0 10051284
13:30+44nw6965 0.0 10034906
16:30+44nw7865 0.0 10015330
19:30+42nw6870 0.0 1001922
22:30+38nnw5890 0.0 1002137